sat.trackr.live / text

‹ back to catalog

STARLINK-5578

NORAD 55374 · 2023-013AV

PAYLOAD ACTIVE UNKNOWN

§ Identity

Operator
Country
US
Launch date
2023-01-26
Launch site
AFETR
Launch vehicle
Mass (kg)
RCS (m²)

Purposes: comms

External: N2YO · Heavens-Above · Gunter

§ Orbital elements

Epoch: 2026-09-20T10:28:35.168160Z

Period
94.27 min
Inclination
43.0053°
Eccentricity
0.0001785
Mean motion
15.27575434 rev/d
Perigee alt
481.8 km
Apogee alt
484.3 km
Semi-major
6,861.2 km
B*
8.4353e-7
RAAN
302.0092°
Arg perigee
291.3740°
Mean anomaly
68.6921°
Rev number
20,124

§ Raw data

STARLINK-55781 55374U 23013AV  26263.43651815 -.00000239  00000+0  84353-6 0  99982 55374  43.0053 302.0092 0001785 291.3740  68.6921 15.27575434201248

JSON: /api/v1/satellites/55374 · /tle

For live sub-satellite position, see the globe view (requires WebGL).

§ Visibility from observer

Set your observer location to see the next 7 days of passes ≥ 10°. The values pass through the URL so the page stays shareable.

No JS? Fill the form by hand. The geolocation button needs JavaScript.